SWA1651 KPDX-KSMF

Flight info

Callsign SWA1651
Flight time 1h 9m
Altitude 35000
Route HRMNS6 HYJOE LMT TUDOR2
Aircraft B737/M-SDE2E3FGHIRWXY/LB1

Departure

Time 2026-05-06 19:40
Airport Portland International Airport (KPDX)

Arrival

Time 2026-05-06 20:50
Airport Sacramento International Airport (KSMF)
Time Latitude Longitude Altitude Speed Heading
2026-05-06 19:26 45.59027 -122.59156 31 ft 0 kts 210°
2026-05-06 19:30 45.59029 -122.59151 31 ft 4 kts 188°
2026-05-06 19:31 45.59050 -122.59137 32 ft 4 kts 219°
2026-05-06 19:31 45.59066 -122.59110 32 ft 4 kts 257°
2026-05-06 19:31 45.59065 -122.59082 33 ft 1 kts 299°
2026-05-06 19:34 45.59066 -122.59085 33 ft 1 kts 299°
2026-05-06 19:34 45.59078 -122.59115 32 ft 7 kts 299°
2026-05-06 19:34 45.59107 -122.59190 33 ft 10 kts 299°
2026-05-06 19:35 45.59165 -122.59243 32 ft 12 kts 358°
2026-05-06 19:35 45.59201 -122.59165 36 ft 12 kts 116°
2026-05-06 19:35 45.59156 -122.59052 36 ft 15 kts 118°
2026-05-06 19:35 45.59101 -122.58909 35 ft 18 kts 119°
2026-05-06 19:36 45.59038 -122.58747 33 ft 20 kts 119°
2026-05-06 19:36 45.58969 -122.58569 29 ft 21 kts 119°
2026-05-06 19:36 45.58900 -122.58393 30 ft 20 kts 119°
2026-05-06 19:36 45.58834 -122.58224 35 ft 19 kts 119°
2026-05-06 19:37 45.58769 -122.58060 36 ft 19 kts 119°
2026-05-06 19:37 45.58707 -122.57901 38 ft 18 kts 118°
2026-05-06 19:37 45.58648 -122.57747 35 ft 18 kts 119°
2026-05-06 19:37 45.58609 -122.57647 33 ft 17 kts 119°
2026-05-06 19:38 45.58532 -122.57452 29 ft 17 kts 119°
2026-05-06 19:38 45.58477 -122.57308 29 ft 16 kts 118°
2026-05-06 19:38 45.58423 -122.57170 29 ft 16 kts 118°
2026-05-06 19:38 45.58371 -122.57037 29 ft 15 kts 119°
2026-05-06 19:39 45.58348 -122.56912 33 ft 9 kts 63°
2026-05-06 19:39 45.58406 -122.56868 30 ft 10 kts 11°
2026-05-06 19:39 45.58454 -122.56935 28 ft 13 kts 300°
2026-05-06 19:39 45.58614 -122.57345 29 ft 83 kts 299°
2026-05-06 19:40 45.59000 -122.58335 31 ft 142 kts 299°
2026-05-06 19:40 45.59537 -122.59728 301 ft 168 kts 297°
2026-05-06 19:40 45.60075 -122.61205 1026 ft 170 kts 297°
2026-05-06 19:40 45.60632 -122.62730 1702 ft 176 kts 296°
2026-05-06 19:41 45.61191 -122.64297 2333 ft 183 kts 295°
2026-05-06 19:41 45.61680 -122.66009 2932 ft 192 kts 284°
2026-05-06 19:41 45.61964 -122.68003 3145 ft 217 kts 288°
2026-05-06 19:41 45.62761 -122.69958 3414 ft 240 kts 301°
2026-05-06 19:42 45.63679 -122.72077 3889 ft 256 kts 299°
2026-05-06 19:42 45.64590 -122.74270 4764 ft 257 kts 299°
2026-05-06 19:42 45.65491 -122.76475 5650 ft 258 kts 299°
2026-05-06 19:42 45.66396 -122.78703 6530 ft 260 kts 300°
2026-05-06 19:43 45.67044 -122.81102 7365 ft 263 kts 278°
2026-05-06 19:43 45.66944 -122.83732 8192 ft 269 kts 258°
2026-05-06 19:43 45.66417 -122.86312 9105 ft 273 kts 255°
2026-05-06 19:43 45.65769 -122.88884 9992 ft 279 kts 243°
2026-05-06 19:44 45.64498 -122.90971 10782 ft 288 kts 218°
2026-05-06 19:44 45.62644 -122.92181 11472 ft 307 kts 195°
2026-05-06 19:44 45.60416 -122.92085 11802 ft 336 kts 168°
2026-05-06 19:44 45.58142 -122.91123 12515 ft 345 kts 165°
2026-05-06 19:45 45.55838 -122.90092 13350 ft 349 kts 166°
2026-05-06 19:45 45.53536 -122.88931 14175 ft 356 kts 157°
2026-05-06 19:45 45.51351 -122.87201 14961 ft 361 kts 152°
2026-05-06 19:45 45.49197 -122.85314 15780 ft 365 kts 151°
2026-05-06 19:46 45.47034 -122.83382 16605 ft 369 kts 151°
2026-05-06 19:46 45.44843 -122.81436 17388 ft 373 kts 152°
2026-05-06 19:46 45.42621 -122.79485 18183 ft 377 kts 152°
2026-05-06 19:46 45.40369 -122.77529 18913 ft 382 kts 152°
2026-05-06 19:47 45.38078 -122.75557 19569 ft 387 kts 152°
2026-05-06 19:47 45.35753 -122.73566 20225 ft 393 kts 152°
2026-05-06 19:47 45.33397 -122.71555 20893 ft 397 kts 152°
2026-05-06 19:47 45.31010 -122.69522 21546 ft 402 kts 152°
2026-05-06 19:48 45.28595 -122.67467 22193 ft 407 kts 152°
2026-05-06 19:48 45.26179 -122.65413 22833 ft 412 kts 152°
2026-05-06 19:48 45.23702 -122.63310 23471 ft 417 kts 152°
2026-05-06 19:48 45.21196 -122.61184 24043 ft 422 kts 152°
2026-05-06 19:49 45.18667 -122.59040 24585 ft 426 kts 152°
2026-05-06 19:49 45.16113 -122.56876 25145 ft 429 kts 152°
2026-05-06 19:49 45.13542 -122.54701 25688 ft 432 kts 152°
2026-05-06 19:49 45.10947 -122.52508 26209 ft 436 kts 152°
2026-05-06 19:50 45.08332 -122.50302 26707 ft 440 kts 151°
2026-05-06 19:50 45.05692 -122.48076 27197 ft 444 kts 151°
2026-05-06 19:50 45.03026 -122.45828 27715 ft 447 kts 151°
2026-05-06 19:50 45.00343 -122.43570 28225 ft 451 kts 151°
2026-05-06 19:51 44.97638 -122.41296 28718 ft 454 kts 151°
2026-05-06 19:51 44.94899 -122.39037 29150 ft 457 kts 154°
2026-05-06 19:51 44.91971 -122.37273 29583 ft 459 kts 162°
2026-05-06 19:51 44.88938 -122.35829 30044 ft 461 kts 165°
2026-05-06 19:52 44.86907 -122.34939 30345 ft 462 kts 165°
2026-05-06 19:52 44.83826 -122.33622 30779 ft 463 kts 165°
2026-05-06 19:52 44.80751 -122.32291 31315 ft 461 kts 165°
2026-05-06 19:52 44.76699 -122.30489 31960 ft 462 kts 164°
2026-05-06 19:53 44.74629 -122.29549 32170 ft 463 kts 164°
2026-05-06 19:53 44.70544 -122.27670 32155 ft 468 kts 163°
2026-05-06 19:53 44.65364 -122.25263 32170 ft 467 kts 163°
2026-05-06 19:54 44.62308 -122.23841 32408 ft 469 kts 163°
2026-05-06 19:54 44.59175 -122.22388 32948 ft 467 kts 163°
2026-05-06 19:54 44.56102 -122.20967 33539 ft 463 kts 163°
2026-05-06 19:54 44.53091 -122.19576 34052 ft 462 kts 163°
2026-05-06 19:55 44.50035 -122.18167 34404 ft 463 kts 163°
2026-05-06 19:55 44.46978 -122.16758 34788 ft 461 kts 163°
2026-05-06 19:55 44.43933 -122.15357 35136 ft 461 kts 163°
2026-05-06 19:55 44.40885 -122.13957 35138 ft 460 kts 163°
2026-05-06 19:56 44.34806 -122.11164 35159 ft 460 kts 163°
2026-05-06 19:56 44.28735 -122.08393 35172 ft 458 kts 163°
2026-05-06 19:57 44.22683 -122.05622 35159 ft 457 kts 163°
2026-05-06 19:57 44.16673 -122.02874 35149 ft 457 kts 163°
2026-05-06 19:58 44.10616 -122.00119 35140 ft 458 kts 163°
2026-05-06 19:58 44.04556 -121.97371 35148 ft 458 kts 163°
2026-05-06 19:59 43.98502 -121.94628 35145 ft 457 kts 163°
2026-05-06 19:59 43.92451 -121.91892 35139 ft 457 kts 162°
2026-05-06 20:00 43.86408 -121.89171 35128 ft 456 kts 164°
2026-05-06 20:00 43.83314 -121.88291 35133 ft 452 kts 175°
2026-05-06 20:00 43.80186 -121.87925 35128 ft 452 kts 178°
2026-05-06 20:01 43.73951 -121.87489 35138 ft 451 kts 179°
2026-05-06 20:01 43.67680 -121.87032 35120 ft 451 kts 179°
2026-05-06 20:02 43.61421 -121.86480 35098 ft 450 kts 178°
2026-05-06 20:02 43.55175 -121.85886 35116 ft 450 kts 178°
2026-05-06 20:03 43.48922 -121.85283 35111 ft 450 kts 178°
2026-05-06 20:03 43.42679 -121.84685 35109 ft 449 kts 178°
2026-05-06 20:04 43.36448 -121.84092 35103 ft 449 kts 178°
2026-05-06 20:04 43.30220 -121.83501 35106 ft 448 kts 179°
2026-05-06 20:05 43.24039 -121.82915 35099 ft 447 kts 179°
2026-05-06 20:05 43.17833 -121.82328 35099 ft 446 kts 179°
2026-05-06 20:06 43.11637 -121.81742 35109 ft 446 kts 179°
2026-05-06 20:06 43.05449 -121.81160 35103 ft 445 kts 179°
2026-05-06 20:07 42.99265 -121.80579 35101 ft 445 kts 179°
2026-05-06 20:07 42.93080 -121.79999 35097 ft 445 kts 179°
2026-05-06 20:08 42.86906 -121.79420 35089 ft 444 kts 179°
2026-05-06 20:08 42.80738 -121.78844 35102 ft 444 kts 179°
2026-05-06 20:09 42.74608 -121.78273 35103 ft 444 kts 179°
2026-05-06 20:09 42.68436 -121.77699 35100 ft 444 kts 179°
2026-05-06 20:10 42.62267 -121.77126 35103 ft 444 kts 179°
2026-05-06 20:10 42.56100 -121.76554 35102 ft 444 kts 179°
2026-05-06 20:11 42.49926 -121.75983 35100 ft 444 kts 179°
2026-05-06 20:11 42.43748 -121.75413 35101 ft 445 kts 179°
2026-05-06 20:12 42.37570 -121.74844 35107 ft 445 kts 179°
2026-05-06 20:12 42.31427 -121.74278 35101 ft 445 kts 179°
2026-05-06 20:13 42.25242 -121.73711 35103 ft 445 kts 179°
2026-05-06 20:13 42.19061 -121.73144 35085 ft 445 kts 179°
2026-05-06 20:14 42.12887 -121.72667 35189 ft 443 kts 182°
2026-05-06 20:14 42.06712 -121.72628 35197 ft 442 kts 183°
2026-05-06 20:15 42.00585 -121.72677 35171 ft 443 kts 183°
2026-05-06 20:15 41.94420 -121.72688 35159 ft 443 kts 183°
2026-05-06 20:16 41.88251 -121.72666 35140 ft 443 kts 183°
2026-05-06 20:16 41.82078 -121.72634 35135 ft 443 kts 183°
2026-05-06 20:17 41.75908 -121.72602 35125 ft 444 kts 183°
2026-05-06 20:17 41.69725 -121.72570 35129 ft 444 kts 182°
2026-05-06 20:18 41.63536 -121.72538 35136 ft 444 kts 182°
2026-05-06 20:18 41.57335 -121.72507 35147 ft 445 kts 182°
2026-05-06 20:19 41.51179 -121.72477 35136 ft 445 kts 182°
2026-05-06 20:19 41.44990 -121.72446 35151 ft 445 kts 182°
2026-05-06 20:20 41.38798 -121.72415 35150 ft 445 kts 182°
2026-05-06 20:20 41.32592 -121.72384 35144 ft 445 kts 182°
2026-05-06 20:21 41.26382 -121.72353 35131 ft 446 kts 182°
2026-05-06 20:21 41.20170 -121.72322 35120 ft 446 kts 182°
2026-05-06 20:22 41.14006 -121.72292 35115 ft 446 kts 182°
2026-05-06 20:22 41.07796 -121.72261 35123 ft 446 kts 181°
2026-05-06 20:23 41.01595 -121.72230 35122 ft 446 kts 182°
2026-05-06 20:23 40.95389 -121.72200 35129 ft 446 kts 181°
2026-05-06 20:24 40.92279 -121.72185 34914 ft 448 kts 181°
2026-05-06 20:24 40.89166 -121.72169 34564 ft 444 kts 181°
2026-05-06 20:24 40.86088 -121.72154 34168 ft 440 kts 181°
2026-05-06 20:24 40.83034 -121.72138 33742 ft 437 kts 181°
2026-05-06 20:25 40.80004 -121.72123 33315 ft 434 kts 181°
2026-05-06 20:25 40.76993 -121.72108 32903 ft 430 kts 181°
2026-05-06 20:25 40.74014 -121.72094 32503 ft 427 kts 181°
2026-05-06 20:25 40.71055 -121.72080 32114 ft 424 kts 181°
2026-05-06 20:26 40.68142 -121.72066 31724 ft 421 kts 180°
2026-05-06 20:26 40.65221 -121.72052 31338 ft 419 kts 180°
2026-05-06 20:26 40.62317 -121.72038 30947 ft 416 kts 180°
2026-05-06 20:26 40.59428 -121.72024 30563 ft 414 kts 180°
2026-05-06 20:27 40.56554 -121.72010 30198 ft 411 kts 180°
2026-05-06 20:27 40.53695 -121.71996 29755 ft 409 kts 180°
2026-05-06 20:27 40.50863 -121.71982 29328 ft 405 kts 180°
2026-05-06 20:27 40.48055 -121.71969 28920 ft 401 kts 180°
2026-05-06 20:28 40.45271 -121.71955 28523 ft 398 kts 180°
2026-05-06 20:28 40.42510 -121.71881 28095 ft 395 kts 177°
2026-05-06 20:28 40.39780 -121.71648 27697 ft 392 kts 176°
2026-05-06 20:28 40.37066 -121.71386 27281 ft 389 kts 176°
2026-05-06 20:29 40.34372 -121.71135 26896 ft 386 kts 176°
2026-05-06 20:29 40.31694 -121.70896 26488 ft 384 kts 176°
2026-05-06 20:29 40.29069 -121.70668 26098 ft 382 kts 176°
2026-05-06 20:29 40.26425 -121.70441 25711 ft 380 kts 176°
2026-05-06 20:30 40.23794 -121.70215 25313 ft 378 kts 176°
2026-05-06 20:30 40.18568 -121.69768 24517 ft 375 kts 176°
2026-05-06 20:30 40.15967 -121.69544 24121 ft 374 kts 176°
2026-05-06 20:31 40.13377 -121.69322 23700 ft 373 kts 176°
2026-05-06 20:31 40.10797 -121.69101 23237 ft 370 kts 176°
2026-05-06 20:31 40.08245 -121.68882 22940 ft 364 kts 176°
2026-05-06 20:31 40.05721 -121.68666 22523 ft 362 kts 176°
2026-05-06 20:32 40.03222 -121.68452 22142 ft 359 kts 176°
2026-05-06 20:32 40.00741 -121.68240 21761 ft 356 kts 175°
2026-05-06 20:32 39.98274 -121.68029 21358 ft 355 kts 175°
2026-05-06 20:32 39.95818 -121.67819 20950 ft 353 kts 175°
2026-05-06 20:33 39.93376 -121.67611 20561 ft 351 kts 175°
2026-05-06 20:33 39.90947 -121.67404 20162 ft 348 kts 175°
2026-05-06 20:33 39.88534 -121.67198 19779 ft 346 kts 175°
2026-05-06 20:33 39.86164 -121.66996 19391 ft 345 kts 175°
2026-05-06 20:34 39.83772 -121.66793 18997 ft 344 kts 175°
2026-05-06 20:34 39.81388 -121.66590 18591 ft 344 kts 175°
2026-05-06 20:34 39.79001 -121.66387 18155 ft 343 kts 175°
2026-05-06 20:34 39.76615 -121.66184 17612 ft 345 kts 175°
2026-05-06 20:35 39.74216 -121.65980 17162 ft 345 kts 175°
2026-05-06 20:35 39.71830 -121.65777 16729 ft 343 kts 175°
2026-05-06 20:35 39.69455 -121.65576 16307 ft 340 kts 175°
2026-05-06 20:35 39.67110 -121.65378 15948 ft 336 kts 175°
2026-05-06 20:36 39.64787 -121.65181 15578 ft 332 kts 175°
2026-05-06 20:36 39.62489 -121.64987 15206 ft 329 kts 174°
2026-05-06 20:36 39.60210 -121.64794 14844 ft 326 kts 174°
2026-05-06 20:36 39.57955 -121.64603 14472 ft 324 kts 174°
2026-05-06 20:37 39.55717 -121.64414 14105 ft 321 kts 174°
2026-05-06 20:37 39.53496 -121.64226 13703 ft 319 kts 174°
2026-05-06 20:37 39.51294 -121.64040 13304 ft 316 kts 175°
2026-05-06 20:37 39.49119 -121.63857 13066 ft 308 kts 175°
2026-05-06 20:38 39.47020 -121.63681 12730 ft 305 kts 175°
2026-05-06 20:38 39.44878 -121.63501 12384 ft 304 kts 175°
2026-05-06 20:38 39.43478 -121.63383 12145 ft 304 kts 175°
2026-05-06 20:38 39.40685 -121.63148 11660 ft 303 kts 175°
2026-05-06 20:39 39.38583 -121.62971 11281 ft 302 kts 176°
2026-05-06 20:39 39.36488 -121.62795 10900 ft 301 kts 176°
2026-05-06 20:39 39.34404 -121.62620 10516 ft 300 kts 176°
2026-05-06 20:39 39.32324 -121.62445 10148 ft 299 kts 176°
2026-05-06 20:40 39.30250 -121.62272 9749 ft 299 kts 176°
2026-05-06 20:40 39.28179 -121.62098 9377 ft 297 kts 176°
2026-05-06 20:40 39.26808 -121.61983 9121 ft 296 kts 176°
2026-05-06 20:40 39.24757 -121.61812 8747 ft 295 kts 176°
2026-05-06 20:41 39.22711 -121.61641 8336 ft 294 kts 176°
2026-05-06 20:41 39.20694 -121.61473 7965 ft 287 kts 176°
2026-05-06 20:41 39.18720 -121.61310 7627 ft 280 kts 176°
2026-05-06 20:41 39.16792 -121.61149 7295 ft 277 kts 176°
2026-05-06 20:42 39.14869 -121.60990 6970 ft 276 kts 176°
2026-05-06 20:42 39.12961 -121.60831 6649 ft 275 kts 176°
2026-05-06 20:42 39.11058 -121.60674 6302 ft 273 kts 176°
2026-05-06 20:42 39.09159 -121.60516 5960 ft 272 kts 176°
2026-05-06 20:43 39.07273 -121.60360 5621 ft 271 kts 176°
2026-05-06 20:43 39.05393 -121.60204 5290 ft 270 kts 176°
2026-05-06 20:43 39.03520 -121.60049 4954 ft 269 kts 176°
2026-05-06 20:43 39.01677 -121.59896 4614 ft 268 kts 176°
2026-05-06 20:44 38.99798 -121.59741 4273 ft 266 kts 176°
2026-05-06 20:44 38.97953 -121.59620 3981 ft 263 kts 180°
2026-05-06 20:44 38.96183 -121.59647 3896 ft 253 kts 182°
2026-05-06 20:44 38.94430 -121.59702 3769 ft 244 kts 182°
2026-05-06 20:45 38.92785 -121.59740 3659 ft 235 kts 181°
2026-05-06 20:45 38.91186 -121.59769 3565 ft 225 kts 181°
2026-05-06 20:45 38.89644 -121.59794 3388 ft 220 kts 181°
2026-05-06 20:45 38.88128 -121.59819 3184 ft 216 kts 181°
2026-05-06 20:46 38.86631 -121.59844 2984 ft 212 kts 181°
2026-05-06 20:46 38.85203 -121.59867 2854 ft 201 kts 181°
2026-05-06 20:46 38.83828 -121.59890 2605 ft 194 kts 181°
2026-05-06 20:46 38.82499 -121.59912 2345 ft 186 kts 182°
2026-05-06 20:47 38.81247 -121.59933 2105 ft 174 kts 181°
2026-05-06 20:47 38.80079 -121.59952 1866 ft 162 kts 181°
2026-05-06 20:47 38.78996 -121.59970 1661 ft 149 kts 181°
2026-05-06 20:47 38.77995 -121.59987 1525 ft 139 kts 182°
2026-05-06 20:48 38.77031 -121.60003 1306 ft 136 kts 181°
2026-05-06 20:48 38.76083 -121.60019 1113 ft 135 kts 182°
2026-05-06 20:48 38.75157 -121.60035 940 ft 135 kts 181°
2026-05-06 20:48 38.74203 -121.60051 758 ft 136 kts 181°
2026-05-06 20:49 38.73255 -121.60068 560 ft 136 kts 181°
2026-05-06 20:49 38.72308 -121.60082 381 ft 136 kts 181°
2026-05-06 20:49 38.71355 -121.60097 213 ft 137 kts 181°
2026-05-06 20:49 38.70399 -121.60115 45 ft 138 kts 180°
2026-05-06 20:50 38.69578 -121.60127 28 ft 80 kts 180°
2026-05-06 20:50 38.69151 -121.60134 33 ft 44 kts 180°
2026-05-06 20:50 38.69065 -121.60079 34 ft 11 kts 104°
2026-05-06 20:50 38.69059 -121.59978 32 ft 12 kts 88°
2026-05-06 20:51 38.69076 -121.59883 30 ft 11 kts 40°
2026-05-06 20:51 38.69152 -121.59874 32 ft 11 kts 359°
2026-05-06 20:51 38.69226 -121.59872 32 ft 11 kts
2026-05-06 20:51 38.69299 -121.59870 32 ft 10 kts 360°
2026-05-06 20:52 38.69370 -121.59869 31 ft 11 kts
2026-05-06 20:52 38.69446 -121.59862 31 ft 11 kts 19°
2026-05-06 20:52 38.69466 -121.59775 33 ft 11 kts 91°
2026-05-06 20:52 38.69465 -121.59680 35 ft 11 kts 90°
2026-05-06 20:53 38.69464 -121.59581 34 ft 12 kts 91°
2026-05-06 20:53 38.69462 -121.59464 33 ft 14 kts 87°
2026-05-06 20:53 38.69501 -121.59406 32 ft 8 kts 17°
2026-05-06 20:53 38.69520 -121.59396 33 ft 0 kts 25°
2026-05-06 20:54 38.69519 -121.59396 33 ft 3 kts 25°
2026-05-06 20:54 38.69506 -121.59404 31 ft 1 kts 21°
2026-05-06 20:54 38.69519 -121.59397 33 ft 0 kts 25°